Location: Unspecified
(0.0000°N, 0.0000°E)
Time: 08:03:15
(UTC+00:00)

Transit 4A - Pass Details

Date: 05 June 2022
Orbit: 864 x 980 km, 66.8° (Epoch: 24 June)

Event Time Altitude Azimuth Distance (km) Brightness Sun altitude
Rises 23:50:17 0° 204° (SSW) 3,584 - -67.3°
Reaches altitude 10° 23:52:48 10° 206° (SSW) 2,655 - -67.3°
Maximum altitude 23:58:59 72° 289° (WNW) 1,003 - -67.4°
Drops below altitude 10° 00:05:18 10° 13° (NNE) 2,708 - -67.3°
Sets 00:07:53 0° 16° (NNE) 3,660 - -67.3°
